Location: Peebles
(55.6412°N, 3.1714°W)
Time: 09:34:23
(UTC+01:00)

Cosmos 1953 - Pass Details

Date: 26 September 2021
Orbit: 539 x 555 km, 82.5° (Epoch: 20 October)

Event Time Altitude Azimuth Distance (km) Brightness Sun altitude
Exits shadow 22:42:44 21° 12° (NNE) 1,283 4.5 -28.9°
Drops below altitude 10° 22:44:08 10° 12° (NNE) 1,840 5.4 -29.1°
Sets 22:46:19 0° 13° (NNE) 2,742 6.4 -29.3°
